User: anonymous   Login
Location: French Creek State Gamelands
(40.1750°N, 75.7969°W)
Time: 07:09:13
(UTC-05:00)
Language:

ISS - Orbit

View from above orbital plane
View from above orbital plane
View from above satellite
View from above satellite

Ground track
Ground track

The orbit data is extracted from the following two-line orbital elements,

1 25544U 98067A   14332.12480567  .00017916  00000-0  30378-3 0  4720
2 25544 051.6474 006.7919 0007352 075.3130 346.0866 15.51558891916767
Epoch (UTC): 28 November 2014 02:59:43
Eccentricity: 0.0007352
inclination: 51.6474°
perigee height: 407 km
apogee height: 417 km
right ascension of ascending node: 6.7919°
argument of perigee: 75.3130°
revolutions per day: 15.51558891
mean anomaly at epoch: 346.0866°
orbit number at epoch: 91676

The dashed part of the orbit path shows where the satellite is in the earth's shadow,  

DLR